Date,TemperatureHighF,TemperatureAvgF,TemperatureLowF,DewpointHighF,DewpointAvgF,DewpointLowF,HumidityHigh,HumidityAvg,HumidityLow,PressureMaxIn,PressureMinIn,WindSpeedMaxMPH,WindSpeedAvgMPH,GustSpeedMaxMPH,PrecipitationSumIn
2013-1-1,25.0,17.4,11.0,19.0,13.5,7.0,88,85,73,0.00,40.00,2,0,6,0.00
2013-1-2,27.0,16.2,5.0,21.0,12.2,1.0,88,84,74,0.00,40.00,3,0,4,0.00
2013-1-3,27.0,16.1,6.0,22.0,12.4,2.0,88,85,76,0.00,40.00,3,1,6,0.00
2013-1-4,31.0,19.1,9.0,24.0,15.2,6.0,90,85,67,0.00,40.00,3,0,6,0.00
2013-1-5,28.0,22.7,16.0,25.0,19.6,13.0,91,88,82,0.00,40.00,2,0,6,0.00
2013-1-6,34.0,26.9,23.0,30.0,24.5,20.0,92,90,82,0.00,40.00,5,0,12,0.00
2013-1-7,35.0,31.7,24.0,33.0,30.1,22.0,94,93,91,0.00,40.00,2,0,6,0.00
2013-1-8,39.0,33.7,30.0,35.0,31.6,29.0,94,92,86,0.00,40.00,2,0,6,0.00
2013-1-9,38.0,29.9,21.0,33.0,26.2,18.0,94,86,64,0.00,40.00,4,2,18,0.00
2013-1-10,23.0,21.8,20.0,19.0,18.4,17.0,88,87,84,0.00,40.00,4,1,14,0.00
2013-1-11,23.0,17.5,3.0,19.0,13.3,-3.0,88,83,68,0.00,40.00,4,1,15,0.00
2013-1-12,22.0,5.6,-6.0,16.0,0.8,-11.0,84,80,73,0.00,40.00,2,0,6,0.00
2013-1-13,20.0,3.8,-8.0,12.0,-1.7,-13.0,83,78,54,0.00,40.00,1,0,6,0.00
2013-1-14,31.0,12.5,-2.0,22.0,7.2,-7.0,88,80,54,0.00,40.00,4,0,11,0.00
2013-1-15,34.0,18.6,7.0,31.0,15.5,3.0,92,87,77,0.00,40.00,3,1,4,0.00
2013-1-16,34.0,21.0,9.0,29.0,17.4,6.0,91,86,65,0.00,40.00,4,1,6,0.00
2013-1-17,38.0,21.4,10.0,28.0,16.9,6.0,91,83,52,0.00,40.00,3,0,6,0.00
2013-1-18,37.0,20.6,7.0,26.0,15.4,3.0,91,81,39,0.00,40.00,3,0,7,0.00
2013-1-19,39.0,22.4,10.0,22.0,15.4,7.0,90,77,38,0.00,40.00,4,1,8,0.00
2013-1-20,38.0,19.3,6.0,21.0,12.8,3.0,90,77,42,0.00,40.00,3,1,9,0.00
2013-1-21,42.0,20.9,6.0,22.0,12.4,3.0,90,74,25,0.00,40.00,4,1,8,0.00
2013-1-22,38.0,24.2,10.0,23.0,16.3,7.0,90,74,34,0.00,40.00,4,1,8,0.00
2013-1-23,43.0,35.9,28.0,34.0,26.3,11.0,94,70,27,0.00,40.00,4,2,12,0.00
2013-1-24,41.0,35.2,32.0,38.0,32.7,29.0,94,91,75,0.00,40.00,2,0,5,0.00
2013-1-25,39.0,35.6,32.0,37.0,33.9,30.0,93,93,92,0.00,40.00,3,1,8,0.00
2013-1-26,36.0,28.6,24.0,35.0,25.3,21.0,93,87,72,0.00,40.00,4,1,12,0.00
2013-1-27,28.0,25.0,23.0,22.0,20.9,19.0,89,84,72,0.00,40.00,4,1,14,0.00
2013-1-28,29.0,26.6,25.0,26.0,24.2,22.0,92,90,87,0.00,40.00,3,1,14,0.00
2013-1-29,33.0,28.9,27.0,29.0,26.3,25.0,92,90,81,0.00,40.00,5,2,17,0.00
2013-1-30,35.0,29.1,23.0,33.0,27.1,21.0,93,92,91,0.00,40.00,3,1,9,0.00
2013-1-31,39.0,28.1,14.0,36.0,25.3,11.0,93,89,77,0.00,40.00,2,0,7,0.00
2013-2-1,40.0,25.9,14.0,31.0,21.7,11.0,92,85,61,0.00,40.00,4,1,8,0.00
2013-2-2,41.0,27.1,17.0,29.0,21.5,14.0,91,81,47,0.00,40.00,4,1,6,0.00
2013-2-3,49.0,28.9,13.0,28.0,19.7,10.0,91,74,27,0.00,40.00,4,0,12,0.00
2013-2-4,50.0,34.3,26.0,29.0,23.8,13.0,92,71,22,0.00,40.00,3,0,9,0.00
2013-2-5,39.0,31.3,27.0,31.0,26.0,18.0,94,82,42,0.00,40.00,6,1,12,0.00
2013-2-6,37.0,30.5,27.0,29.0,26.5,23.0,94,86,63,0.00,40.00,4,1,11,0.00
2013-2-7,31.0,27.2,24.0,25.0,22.5,19.0,91,82,66,0.00,40.00,6,-13,12,0.00
2013-2-8,30.0,22.5,13.0,23.0,18.5,10.0,91,85,62,0.00,40.00,6,2,14,0.00
2013-2-9,31.0,23.7,14.0,25.0,19.9,11.0,91,85,75,0.00,40.00,6,2,14,0.00
2013-2-10,39.0,28.2,20.0,25.0,20.6,15.0,92,76,38,0.00,40.00,4,1,9,0.00
2013-2-11,43.0,26.4,12.0,27.0,20.2,9.0,93,80,41,0.00,40.00,6,1,14,0.00
2013-2-12,36.0,28.4,18.0,28.0,24.5,16.0,93,86,69,0.00,40.00,10,2,18,0.00
2013-2-13,43.0,32.8,23.0,34.0,27.2,20.0,92,81,52,0.00,40.00,7,-13,16,0.00
2013-2-14,45.0,32.5,25.0,31.0,25.0,21.0,94,77,39,0.00,40.00,3,1,14,0.00
2013-2-15,48.0,32.4,24.0,27.0,23.9,22.0,91,74,35,0.00,40.00,4,1,10,0.00
2013-2-16,46.0,31.8,20.0,31.0,21.8,17.0,93,70,38,0.00,40.00,6,1,17,0.00
2013-2-17,41.0,26.9,15.0,23.0,16.4,6.0,91,69,24,0.00,40.00,5,1,12,0.00
2013-2-18,36.0,25.1,15.0,25.0,18.1,13.0,93,77,40,0.00,40.00,6,1,15,0.00
2013-2-19,28.0,24.4,18.0,24.0,21.4,17.0,93,88,80,0.00,40.00,3,1,11,0.00
2013-2-20,31.0,24.0,15.0,24.0,19.5,13.0,92,83,65,0.00,40.00,6,-13,12,0.00
2013-2-21,30.0,25.8,20.0,24.0,21.9,19.0,93,85,69,0.00,40.00,5,1,16,0.00
2013-2-22,40.0,29.7,21.0,31.0,25.3,19.0,95,84,59,0.00,40.00,6,-13,14,0.00
2013-2-23,28.0,23.7,17.0,25.0,20.5,13.0,94,87,78,0.00,40.00,0,0,0,0.00
2013-2-24,36.0,22.5,8.0,32.0,19.1,5.0,94,87,74,0.00,40.00,3,0,8,0.00
2013-2-25,30.0,27.3,23.0,28.0,24.1,18.0,94,87,74,0.00,40.00,4,-13,14,0.00
2013-2-26,36.0,23.1,10.0,29.0,18.2,7.0,92,82,45,0.00,40.00,3,1,8,0.00
2013-2-27,43.0,27.5,13.0,32.0,21.4,10.0,93,80,42,0.00,40.00,3,0,10,0.00
2013-2-28,41.0,36.2,32.0,40.0,34.5,31.0,95,94,91,0.00,40.00,3,1,9,0.00
2013-3-1,47.0,35.4,29.0,38.0,32.4,27.0,94,89,65,0.00,40.00,5,1,9,0.00
2013-3-2,49.0,35.4,27.0,36.0,27.3,21.0,94,76,36,0.00,40.00,6,1,10,0.00
2013-3-3,40.0,33.4,25.0,32.0,27.5,22.0,93,80,54,0.00,40.00,5,1,12,0.00
2013-3-4,46.0,31.8,19.0,30.0,20.4,13.0,91,67,30,0.00,40.00,4,1,12,0.00
2013-3-5,38.0,34.8,31.0,32.0,26.3,16.0,93,73,40,0.00,40.00,6,2,12,0.00
2013-3-6,31.0,29.4,26.0,30.0,25.9,21.0,93,87,76,0.00,40.00,5,2,16,0.00
2013-3-7,34.0,26.1,18.0,25.0,21.6,15.0,91,84,53,0.00,40.00,3,-32,5,0.00
2013-3-8,39.0,23.6,9.0,26.0,16.5,6.0,91,76,37,0.00,40.00,4,-52,8,0.00
2013-3-9,43.0,29.1,13.0,24.0,18.2,10.0,91,69,34,0.00,40.00,6,-83,13,0.00
2013-3-10,51.0,33.7,16.0,25.0,19.0,11.0,91,62,22,0.00,40.00,7,1,13,0.00
2013-3-11,51.0,33.5,24.0,33.0,25.9,22.0,91,76,40,0.00,40.00,5,-116,10,0.00
2013-3-12,56.0,36.8,24.0,35.0,25.3,19.0,94,70,25,0.00,40.00,5,1,12,0.00
2013-3-13,57.0,36.6,26.0,30.0,25.2,20.0,91,69,24,0.00,40.00,3,1,8,0.00
2013-3-14,55.0,39.3,29.0,35.0,29.0,21.0,91,71,27,0.00,40.00,6,1,13,0.00
2013-3-15,50.0,36.4,27.0,33.0,27.4,23.0,95,73,38,0.00,40.00,8,1,13,0.00
2013-3-16,43.0,32.3,25.0,33.0,27.0,17.0,95,83,37,0.00,40.00,5,-13,17,0.00
2013-3-17,35.0,29.0,24.0,31.0,24.0,18.0,95,82,52,0.00,40.00,6,-12,16,0.00
2013-3-18,46.0,30.7,16.0,26.0,20.4,14.0,91,70,31,0.00,40.00,5,1,13,0.00
2013-3-19,47.0,37.3,29.0,38.0,29.5,24.0,90,76,43,0.00,40.00,4,1,10,0.00
2013-3-20,39.0,34.3,25.0,37.0,32.4,23.0,95,92,86,0.00,40.00,4,2,15,0.00
2013-3-21,31.0,25.9,22.0,24.0,19.8,17.0,94,78,58,0.00,40.00,3,-20,12,0.00
2013-3-22,31.0,24.5,18.0,21.0,16.6,13.0,85,72,49,0.00,40.00,4,1,12,0.00
2013-3-23,41.0,25.7,11.0,16.0,11.9,8.0,88,61,27,0.00,40.00,5,-6,14,0.00
2013-3-24,48.0,32.8,19.0,28.0,21.2,16.0,87,65,37,0.00,40.00,5,1,12,0.00
2013-3-25,51.0,36.6,26.0,34.0,26.1,14.0,93,71,23,0.00,40.00,6,1,9,0.00
2013-3-26,43.0,36.4,31.0,35.0,31.3,28.0,94,82,56,0.00,40.00,4,1,9,0.00
2013-3-27,48.0,37.7,30.0,35.0,30.2,26.0,94,77,42,0.00,40.00,4,-20,11,0.00
2013-3-28,46.0,37.7,31.0,37.0,33.7,29.0,94,86,57,0.00,40.00,4,1,9,0.00
2013-3-29,54.0,38.7,30.0,37.0,30.6,27.0,94,76,36,0.00,40.00,4,1,9,0.00
2013-3-30,59.0,41.8,29.0,37.0,28.7,-99.9,93,67,33,0.00,40.00,4,1,9,0.00
2013-3-31,43.0,39.0,32.0,39.0,35.9,29.0,94,88,74,0.00,40.00,3,1,8,0.00
2013-4-1,41.0,37.0,33.0,38.0,35.0,32.0,95,93,87,0.00,40.00,4,1,11,0.00
2013-4-2,49.0,38.8,31.0,39.0,34.4,28.0,94,85,59,0.00,40.00,4,1,11,0.00
2013-4-3,53.0,38.5,28.0,41.0,33.0,26.0,94,82,52,0.00,40.00,4,1,8,0.00
2013-4-4,48.0,41.0,35.0,39.0,34.6,32.0,92,79,55,0.00,40.00,7,2,14,0.00
2013-4-5,44.0,37.8,34.0,37.0,33.3,28.0,94,85,53,0.00,40.00,4,1,11,0.00
2013-4-6,41.0,36.4,33.0,37.0,34.0,31.0,94,91,76,0.00,40.00,8,1,19,0.00
2013-4-7,38.0,33.5,28.0,35.0,31.4,25.0,94,92,88,0.00,40.00,5,1,12,0.00
2013-4-8,35.0,29.4,24.0,29.0,24.6,20.0,91,83,61,0.00,40.00,4,1,12,0.00
2013-4-9,48.0,34.0,22.0,38.0,28.8,20.0,92,82,57,0.00,40.00,4,1,11,0.00
2013-4-10,47.0,36.7,29.0,41.0,34.2,28.0,94,91,74,0.00,40.00,3,1,11,0.00
2013-4-11,47.0,35.9,27.0,33.0,28.0,14.0,94,76,27,0.00,40.00,4,1,13,0.00
2013-4-12,55.0,39.0,25.0,34.0,24.6,11.0,93,64,19,0.00,40.00,7,1,16,0.00
2013-4-13,38.0,33.9,29.0,34.0,24.3,16.0,93,69,44,0.00,40.00,6,3,19,0.00
2013-4-14,36.0,29.6,23.0,25.0,19.4,8.0,87,67,34,0.00,40.00,6,-13,18,0.00
2013-4-15,32.0,28.1,25.0,25.0,23.6,21.0,91,83,66,0.00,40.00,5,2,12,0.00
2013-4-16,34.0,28.9,24.0,29.0,24.6,22.0,90,84,71,0.00,40.00,6,1,12,0.00
2013-4-17,41.0,31.8,19.0,26.0,21.0,10.0,93,67,34,0.00,40.00,8,1,15,0.00
2013-4-18,51.0,37.5,25.0,34.0,27.5,23.0,93,70,45,0.00,40.00,7,1,14,0.00
2013-4-19,43.0,38.1,31.0,40.0,35.4,28.0,94,89,81,0.00,40.00,4,1,16,0.00
2013-4-20,51.0,39.8,29.0,34.0,29.1,26.0,94,70,40,0.00,40.00,6,1,13,0.00
2013-4-21,52.0,39.8,28.0,36.0,30.1,26.0,93,71,40,0.00,40.00,6,1,13,0.00
2013-4-22,50.0,37.9,28.0,33.0,24.9,15.0,94,65,24,0.00,40.00,3,1,11,0.00
2013-4-23,57.0,40.6,27.0,28.0,18.6,4.0,74,47,14,0.00,40.00,6,1,15,0.00
2013-4-24,59.0,42.2,28.0,28.0,22.8,14.0,81,51,17,0.00,40.00,4,1,12,0.00
2013-4-25,63.0,45.2,27.0,38.0,27.4,18.0,91,59,19,0.00,40.00,5,1,11,0.00
2013-4-26,67.0,48.1,29.0,40.0,31.3,27.0,94,61,23,0.00,40.00,6,1,12,0.00
2013-4-27,65.0,48.7,29.0,38.0,29.0,20.0,94,56,18,0.00,40.00,4,1,14,0.00
2013-4-28,57.0,46.0,32.0,35.0,30.6,19.0,91,59,30,0.00,40.00,4,1,15,0.00
2013-4-29,49.0,42.9,35.0,41.0,35.4,25.0,94,76,40,0.00,40.00,4,1,9,0.00
2013-4-30,48.0,39.0,28.0,30.0,22.9,14.0,90,56,26,0.00,40.00,8,2,13,0.00
2013-5-1,57.0,40.6,27.0,28.0,21.0,17.0,83,50,21,0.00,40.00,3,1,12,0.00
2013-5-2,65.0,47.0,32.0,34.0,24.1,20.0,77,45,20,0.00,40.00,4,1,9,0.00
2013-5-3,68.0,50.2,30.0,34.0,27.0,20.0,92,50,18,0.00,40.00,4,1,11,0.00
2013-5-4,63.0,51.2,39.0,35.0,29.3,24.0,65,44,26,0.00,40.00,5,2,13,0.00
2013-5-5,64.0,50.1,39.0,44.0,35.3,32.0,94,61,33,0.00,40.00,5,-13,14,0.00
2013-5-6,59.0,47.2,36.0,47.0,40.7,34.0,94,80,51,0.00,40.00,6,1,14,0.00
2013-5-7,51.0,47.0,43.0,47.0,44.4,41.0,94,91,78,0.00,40.00,6,1,18,0.00
2013-5-8,61.0,50.2,43.0,47.0,44.6,40.0,94,83,50,0.00,40.00,8,1,15,0.00
2013-5-9,67.0,51.0,37.0,54.0,43.0,35.0,94,78,38,0.00,40.00,7,1,10,0.00
2013-5-10,73.0,54.7,40.0,50.0,40.3,-99.9,94,67,27,0.00,40.00,3,1,8,0.00
2013-5-11,75.0,59.1,44.0,51.0,42.4,-99.9,92,62,22,0.00,40.00,4,1,11,0.00
2013-5-12,72.0,58.4,44.0,49.0,41.9,34.0,92,59,31,0.00,40.00,4,1,13,0.00
2013-5-13,63.0,51.3,39.0,42.0,37.1,29.0,89,61,40,0.00,40.00,5,1,19,0.00
2013-5-14,60.0,49.9,37.0,40.0,34.0,21.0,94,60,27,0.00,40.00,6,2,15,0.00
2013-5-15,56.0,45.6,36.0,40.0,36.1,32.0,91,71,40,0.00,40.00,5,1,15,0.00
2013-5-16,48.0,40.2,39.0,42.0,21.9,-99.9,94,85,67,0.00,40.00,6,1,12,0.00
2013-5-17,49.0,41.8,36.0,36.0,28.3,-99.9,90,69,46,0.00,40.00,8,2,16,0.00
2013-5-18,47.0,41.0,36.0,41.0,34.5,22.0,92,79,43,0.00,40.00,6,1,14,0.00
2013-5-19,57.0,43.3,29.0,38.0,31.9,26.0,96,69,35,0.00,40.00,3,1,12,0.00
2013-5-20,66.0,48.4,33.0,41.0,32.8,27.0,93,61,25,0.00,40.00,4,1,11,0.00
2013-5-21,51.0,37.7,26.0,42.0,31.2,24.0,95,79,53,0.00,40.00,6,2,16,0.00
2013-5-22,36.0,29.9,24.0,32.0,26.6,22.0,94,88,71,0.00,40.00,4,1,12,0.00
2013-5-23,43.0,35.5,29.0,31.0,27.9,24.0,94,75,48,0.00,40.00,4,2,13,0.00
2013-5-24,48.0,39.6,33.0,34.0,29.6,25.0,90,69,43,0.00,40.00,6,1,14,0.00
2013-5-25,55.0,43.7,29.0,34.0,28.7,24.0,94,61,30,0.00,40.00,8,2,14,0.00
2013-5-26,49.0,42.1,38.0,41.0,36.3,33.0,94,81,58,0.00,40.00,4,1,13,0.00
2013-5-27,47.0,41.8,37.0,44.0,39.7,35.0,95,92,86,0.00,40.00,5,1,14,0.00
2013-5-28,55.0,45.2,39.0,40.0,36.7,29.0,94,75,38,0.00,40.00,6,2,14,0.00
2013-5-29,50.0,43.9,38.0,40.0,34.8,30.0,93,72,46,0.00,40.00,7,2,17,0.00
2013-5-30,53.0,43.7,34.0,35.0,30.7,27.0,86,63,38,0.00,40.00,8,2,16,0.00
2013-5-31,64.0,46.8,30.0,37.0,29.2,14.0,94,58,16,0.00,40.00,4,1,14,0.00
2013-6-1,66.0,52.4,35.0,42.0,34.8,32.0,92,56,29,0.00,40.00,7,2,15,0.00
2013-6-2,66.0,52.2,36.0,45.0,38.8,34.0,94,64,37,0.00,40.00,7,1,15,0.00
2013-6-3,72.0,55.5,40.0,44.0,35.3,18.0,91,55,14,0.00,40.00,4,1,11,0.00
2013-6-4,76.0,60.2,43.0,45.0,39.4,33.0,89,53,21,0.00,40.00,4,1,11,0.00
2013-6-5,77.0,62.9,44.0,45.0,41.9,37.0,90,52,26,0.00,40.00,6,1,15,0.00
2013-6-6,78.0,63.0,44.0,50.0,43.3,38.0,90,55,25,0.00,40.00,6,1,14,0.00
2013-6-7,74.0,61.8,46.0,51.0,46.8,42.0,94,62,35,0.00,40.00,5,1,15,0.00
2013-6-8,81.0,64.5,47.0,50.0,40.1,22.0,90,49,13,0.00,40.00,6,1,11,0.00
2013-6-9,76.0,63.4,48.0,50.0,44.7,39.0,89,55,28,0.00,40.00,7,2,16,0.00
2013-6-10,68.0,56.7,43.0,46.0,37.9,29.0,91,53,32,0.00,40.00,8,2,19,0.00
2013-6-11,54.0,47.4,41.0,41.0,35.5,29.0,93,65,45,0.00,40.00,8,2,16,0.00
2013-6-12,53.0,42.7,30.0,36.0,32.3,28.0,97,69,42,0.00,40.00,7,2,19,0.00
2013-6-13,51.0,42.9,36.0,36.0,33.6,31.0,90,71,50,0.00,40.00,4,1,14,0.00
2013-6-14,64.0,47.1,30.0,35.0,29.7,26.0,96,58,24,0.00,40.00,4,1,10,0.00
2013-6-15,69.0,54.2,34.0,40.0,35.4,31.0,90,54,28,0.00,40.00,7,1,14,0.00
2013-6-16,68.0,56.0,41.0,45.0,39.8,36.0,94,58,34,0.00,40.00,6,2,14,0.00
2013-6-17,65.0,53.1,38.0,44.0,37.9,31.0,93,60,31,0.00,40.00,8,1,18,0.00
2013-6-18,53.0,45.7,38.0,42.0,37.0,29.0,95,74,40,0.00,40.00,6,2,16,0.00
2013-6-19,43.0,38.5,36.0,40.0,36.7,34.0,95,93,84,0.00,40.00,3,1,13,0.00
2013-6-20,51.0,40.1,32.0,39.0,34.4,30.0,95,82,51,0.00,40.00,4,1,12,0.00
2013-6-21,59.0,57.8,57.0,30.0,27.6,25.0,34,31,28,0.00,40.00,3,2,8,0.00
2013-6-22,66.0,59.1,35.0,43.0,34.5,28.0,93,42,24,0.00,40.00,4,1,12,0.00
2013-6-23,59.0,52.0,48.0,52.0,47.0,40.0,92,84,51,0.00,40.00,3,0,6,0.00
2013-6-24,51.0,46.9,44.0,45.0,42.1,40.0,93,84,72,0.00,40.00,3,1,9,0.00
2013-6-25,53.0,49.0,46.0,49.0,44.2,40.0,91,83,70,0.00,40.00,4,1,14,0.00
2013-6-26,60.0,53.9,48.0,52.0,49.2,45.0,93,84,64,0.00,40.00,5,1,12,0.00
2013-6-27,74.0,60.0,47.0,53.0,48.2,41.0,93,69,34,0.00,40.00,4,1,12,0.00
2013-6-28,81.0,66.4,48.0,53.0,47.5,44.0,93,57,29,0.00,40.00,4,1,17,0.00
2013-6-29,77.0,65.5,52.0,52.0,48.2,41.0,90,58,28,0.00,40.00,7,1,13,0.00
2013-6-30,85.0,68.8,51.0,54.0,49.0,44.0,89,54,25,0.00,40.00,5,1,12,0.00
2013-7-1,85.0,71.6,56.0,59.0,52.2,47.0,91,55,27,0.00,40.00,5,-20,14,0.00
2013-7-2,87.0,73.0,56.0,61.0,53.0,48.0,90,55,29,0.00,40.00,4,1,17,0.00
2013-7-3,84.0,71.4,57.0,57.0,51.3,44.0,84,51,34,0.00,40.00,5,1,16,0.00
2013-7-4,74.0,63.5,51.0,48.0,44.2,40.0,82,52,34,0.00,40.00,7,2,17,0.00
2013-7-5,70.0,59.7,48.0,48.0,44.7,40.0,85,59,44,0.00,40.00,6,2,15,0.00
2013-7-6,76.0,60.2,46.0,46.0,43.5,41.0,89,58,33,0.00,40.00,5,1,16,0.00
2013-7-7,76.0,63.9,48.0,49.0,45.8,41.0,89,56,36,0.00,40.00,6,1,15,0.00
2013-7-8,79.0,63.7,47.0,50.0,45.6,41.0,90,55,31,0.00,40.00,5,1,11,0.00
2013-7-9,82.0,67.9,50.0,53.0,42.7,26.0,90,48,13,0.00,40.00,4,1,12,0.00
2013-7-10,80.0,66.9,51.0,54.0,42.3,-99.9,86,47,22,0.00,40.00,4,1,14,0.00
2013-7-11,73.0,62.7,49.0,51.0,44.7,37.0,91,55,34,0.00,40.00,7,1,16,0.00
2013-7-12,69.0,57.1,43.0,45.0,39.8,35.0,87,56,33,0.00,40.00,7,1,15,0.00
2013-7-13,75.0,59.3,42.0,45.0,41.2,36.0,85,55,30,0.00,40.00,6,1,17,0.00
2013-7-14,79.0,64.2,45.0,46.0,42.6,39.0,82,50,24,0.00,40.00,4,1,12,0.00
2013-7-15,81.0,65.1,48.0,49.0,43.6,33.0,86,52,19,0.00,40.00,5,1,8,0.00
2013-7-16,77.0,64.6,53.0,52.0,43.0,31.0,78,50,19,0.00,40.00,5,1,12,0.00
2013-7-17,77.0,62.5,43.0,46.0,41.5,39.0,85,50,30,0.00,40.00,4,1,9,0.00
2013-7-18,81.0,68.2,46.0,48.0,45.1,42.0,88,47,29,0.00,40.00,4,1,18,0.00
2013-7-19,81.0,66.9,49.0,50.0,46.1,41.0,84,51,27,0.00,40.00,6,1,14,0.00
2013-7-20,84.0,68.0,50.0,50.0,45.7,-99.9,84,50,26,0.00,40.00,5,1,12,0.00
2013-7-21,87.0,69.7,48.0,51.0,45.8,42.0,88,49,22,0.00,40.00,6,1,16,0.00
2013-7-22,84.0,68.4,49.0,54.0,46.5,43.0,82,49,27,0.00,40.00,5,1,14,0.00
2013-7-23,84.0,67.3,49.0,52.0,44.9,38.0,75,48,24,0.00,40.00,5,1,13,0.00
2013-7-24,82.0,69.1,56.0,57.0,49.6,45.0,71,51,36,0.00,40.00,4,1,11,0.00
2013-7-25,86.0,71.7,55.0,56.0,51.4,48.0,79,52,31,0.00,40.00,3,1,9,0.00
2013-7-26,84.0,70.1,54.0,58.0,50.6,43.0,82,53,33,0.00,40.00,6,1,14,0.00
2013-7-27,78.0,66.1,51.0,50.0,44.1,40.0,77,47,28,0.00,40.00,6,-7,16,0.00
2013-7-28,73.0,59.3,41.0,46.0,40.5,37.0,86,53,29,0.00,40.00,6,1,15,0.00
2013-7-29,74.0,58.9,43.0,50.0,42.5,38.0,89,58,33,0.00,40.00,5,1,15,0.00
2013-7-30,75.0,60.8,44.0,52.0,42.6,36.0,85,54,31,0.00,40.00,6,1,11,0.00
2013-7-31,72.0,61.6,52.0,55.0,48.3,45.0,94,64,41,0.00,40.00,7,1,12,0.00
2013-8-1,60.0,51.8,47.0,52.0,43.8,37.0,97,76,44,0.00,40.00,6,2,16,0.00
2013-8-2,67.0,53.7,38.0,43.0,37.9,34.0,92,60,32,0.00,40.00,6,1,13,0.00
2013-8-3,74.0,58.1,41.0,44.0,38.7,33.0,90,55,24,0.00,40.00,4,1,12,0.00
2013-8-4,78.0,62.6,44.0,45.0,41.3,36.0,88,51,23,0.00,40.00,4,1,9,0.00
2013-8-5,78.0,63.2,46.0,52.0,44.6,42.0,90,56,30,0.00,40.00,4,1,11,0.00
2013-8-6,81.0,65.8,47.0,51.0,45.1,41.0,89,52,26,0.00,40.00,3,1,11,0.00
2013-8-7,66.0,57.2,50.0,54.0,49.6,42.0,94,78,41,0.00,40.00,3,1,13,0.00
2013-8-8,71.0,55.7,42.0,50.0,43.6,38.0,92,68,30,0.00,40.00,2,0,7,0.00
2013-8-9,65.0,55.5,43.0,51.0,44.1,39.0,93,69,38,0.00,40.00,3,-18,9,0.00
2013-8-10,63.0,54.8,45.0,51.0,44.3,39.0,93,71,44,0.00,40.00,6,1,14,0.00
2013-8-11,69.0,55.8,41.0,46.0,39.9,34.0,91,60,29,0.00,40.00,4,1,14,0.00
2013-8-12,72.0,55.5,43.0,49.0,42.0,40.0,90,65,33,0.00,40.00,4,1,9,0.00
2013-8-13,77.0,59.8,45.0,48.0,33.5,-99.9,89,51,23,0.00,40.00,4,1,10,0.00
2013-8-14,77.0,61.0,47.0,51.0,36.6,-99.9,90,48,26,0.00,40.00,4,1,14,0.00
2013-8-15,78.0,51.5,45.0,48.0,20.8,-99.9,84,48,23,0.00,40.00,5,1,13,0.00
2013-8-16,76.0,61.9,50.0,52.0,41.8,-99.9,89,57,33,0.00,40.00,4,1,12,0.00
2013-8-17,76.0,63.0,50.0,54.0,45.8,-99.9,91,59,38,0.00,40.00,5,1,11,0.00
2013-8-18,79.0,65.1,47.0,51.0,45.0,41.0,90,54,27,0.00,40.00,4,1,12,0.00
2013-8-19,79.0,58.2,50.0,51.0,32.4,-99.9,86,54,30,0.00,40.00,4,1,15,0.00
2013-8-20,81.0,68.4,46.0,48.0,42.0,-99.9,89,44,24,0.00,40.00,4,1,12,0.00
2013-8-21,81.0,67.6,56.0,57.0,44.2,37.0,91,46,28,0.00,40.00,4,1,8,0.00
2013-8-22,68.0,54.8,49.0,55.0,50.1,45.0,94,86,43,0.00,40.00,3,1,8,0.00
2013-8-23,69.0,55.0,43.0,51.0,43.8,38.0,94,71,32,0.00,40.00,6,1,12,0.00
2013-8-24,68.0,55.4,43.0,48.0,41.8,-99.9,91,65,34,0.00,40.00,4,1,13,0.00
2013-8-25,59.0,52.6,49.0,51.0,47.6,45.0,93,83,60,0.00,40.00,4,1,17,0.00
2013-8-26,64.0,52.8,46.0,49.0,44.9,37.0,93,77,37,0.00,40.00,3,1,10,0.00
2013-8-27,67.0,46.4,41.0,47.0,41.0,35.0,91,83,30,0.00,40.00,3,0,9,0.00
2013-8-28,74.0,65.6,53.0,47.0,39.9,33.0,78,42,25,0.00,40.00,8,2,12,0.00
2013-8-29,69.0,59.9,51.0,49.0,45.5,41.0,84,61,38,0.00,40.00,4,-9,12,0.00
2013-8-30,75.0,57.8,44.0,50.0,44.7,35.0,92,67,24,0.00,40.00,3,1,11,0.00
2013-8-31,79.0,60.8,44.0,49.0,42.2,-99.9,91,58,22,0.00,40.00,5,-10,11,0.00
2013-9-1,77.0,62.0,47.0,48.0,40.3,30.0,85,51,18,0.00,40.00,5,1,12,0.00
2013-9-2,70.0,56.5,44.0,47.0,42.9,34.0,89,64,27,0.00,40.00,4,1,12,0.00
2013-9-3,70.0,55.2,42.0,48.0,40.4,31.0,93,63,24,0.00,40.00,4,1,13,0.00
2013-9-4,70.0,53.4,39.0,48.0,40.6,30.0,92,67,23,0.00,40.00,5,1,13,0.00
2013-9-5,57.0,49.7,44.0,48.0,43.9,39.0,93,81,60,0.00,40.00,7,1,16,0.00
2013-9-6,66.0,51.6,41.0,43.0,40.8,38.0,94,70,38,0.00,40.00,6,1,11,0.00
2013-9-7,74.0,56.4,43.0,47.0,39.8,-99.9,92,60,28,0.00,40.00,3,1,9,0.00
2013-9-8,75.0,60.9,43.0,48.0,43.0,40.0,91,57,31,0.00,40.00,4,1,10,0.00
2013-9-9,77.0,60.6,43.0,44.0,39.2,31.0,85,51,19,0.00,40.00,3,1,8,0.00
2013-9-10,79.0,64.9,45.0,46.0,41.2,39.0,80,46,24,0.00,40.00,3,1,9,0.00
2013-9-11,81.0,68.6,47.0,45.0,40.5,37.0,76,39,21,0.00,40.00,4,1,9,0.00
2013-9-12,79.0,65.5,48.0,51.0,46.3,42.0,80,53,30,0.00,40.00,3,1,8,0.00
2013-9-13,79.0,64.9,49.0,49.0,44.8,39.0,89,53,27,0.00,40.00,4,1,10,0.00
2013-9-14,80.0,62.1,45.0,48.0,41.9,-99.9,80,53,27,0.00,40.00,4,1,9,0.00
2013-9-15,74.0,58.5,46.0,48.0,43.2,29.0,85,61,19,0.00,40.00,4,1,15,0.00
2013-9-16,64.0,53.7,41.0,47.0,42.4,37.0,96,68,41,0.00,40.00,5,1,14,0.00
2013-9-17,53.0,45.5,41.0,46.0,42.4,39.0,95,89,70,0.00,40.00,4,1,10,0.00
2013-9-18,44.0,39.9,37.0,40.0,37.8,35.0,94,92,84,0.00,40.00,1,0,4,0.00
2013-9-19,69.0,48.0,34.0,39.0,32.5,22.0,93,64,17,0.00,40.00,4,1,8,0.00
2013-9-20,65.0,49.0,34.0,44.0,36.0,30.0,93,67,28,0.00,40.00,4,1,16,0.00
2013-9-21,46.0,42.2,40.0,43.0,38.9,-99.9,93,90,84,0.00,40.00,4,0,9,0.00
2013-9-22,47.0,43.0,40.0,44.0,39.9,37.0,92,88,76,0.00,40.00,3,1,9,0.00
2013-9-23,56.0,47.7,43.0,45.0,42.9,38.0,92,84,53,0.00,40.00,6,1,11,0.00
2013-9-24,45.0,40.7,35.0,41.0,38.0,33.0,93,90,84,0.00,40.00,3,1,11,0.00
2013-9-25,37.0,33.2,32.0,35.0,31.4,30.0,94,93,88,0.00,40.00,3,1,9,0.00
2013-9-26,44.0,34.9,29.0,33.0,30.5,28.0,94,85,61,0.00,40.00,4,1,10,0.00
2013-10-2,40.0,34.2,28.0,32.0,28.5,25.0,94,81,55,0.00,40.00,3,-90,11,0.00
2013-10-3,45.0,36.0,30.0,32.0,29.9,25.0,93,80,49,0.00,40.00,3,1,8,0.00
2013-10-4,50.0,34.3,30.0,30.0,27.3,21.0,92,79,34,0.00,40.00,3,1,8,0.00
2013-10-5,54.0,36.4,29.0,30.0,26.9,23.0,92,73,32,0.00,40.00,3,1,9,0.00
2013-10-6,62.0,49.6,37.0,38.0,31.0,25.0,81,54,24,0.00,40.00,3,1,8,0.00
2013-10-7,48.0,37.3,31.0,35.0,30.1,25.0,90,77,42,0.00,40.00,4,1,12,0.00
2013-10-8,43.0,36.6,29.0,33.0,30.1,27.0,94,78,57,0.00,40.00,6,2,14,0.00
2013-10-9,45.0,34.9,30.0,31.0,27.0,24.0,92,74,44,0.00,40.00,4,1,10,0.00
2013-10-10,47.0,37.3,30.0,34.0,30.1,28.0,92,77,51,0.00,40.00,6,1,14,0.00
2013-10-11,52.0,35.5,27.0,33.0,28.4,24.0,94,78,37,0.00,40.00,3,0,7,0.00
2013-10-12,45.0,33.7,27.0,34.0,26.7,-99.9,94,82,61,0.00,40.00,4,1,14,0.00
2013-10-13,46.0,35.7,30.0,30.0,28.3,26.0,92,76,45,0.00,40.00,2,1,9,0.00
2013-10-14,50.0,36.9,30.0,30.0,27.3,23.0,92,72,35,0.00,40.00,2,1,9,0.00
2013-10-15,51.0,36.2,29.0,28.0,25.4,23.0,89,69,34,0.00,40.00,2,0,10,0.00
2013-10-16,57.0,40.8,26.0,34.0,25.0,17.0,92,62,21,0.00,40.00,3,1,12,0.00
2013-10-17,58.0,41.8,28.0,36.0,28.7,23.0,91,66,26,0.00,40.00,2,0,9,0.00
2013-10-21,62.0,49.7,35.0,37.0,34.0,29.0,88,58,33,0.00,40.00,2,1,6,0.00
2013-10-22,62.0,48.2,31.0,39.0,32.8,29.0,94,61,33,0.00,40.00,3,1,8,0.00
2013-10-23,63.0,45.0,29.0,39.0,35.1,28.0,93,72,31,0.00,40.00,2,1,6,0.00
2013-10-24,61.0,47.3,29.0,38.0,34.4,27.0,93,65,37,0.00,40.00,1,0,3,0.00
2013-10-25,61.0,48.2,29.0,38.0,32.2,28.0,94,60,32,0.00,40.00,3,1,6,0.00
2013-10-26,64.0,48.9,36.0,35.0,15.6,-99.9,94,39,24,0.00,40.00,4,1,9,0.00
2013-10-27,45.0,34.9,33.0,35.0,32.2,27.0,95,90,49,0.00,40.00,3,1,13,0.00
2013-10-29,41.0,28.3,24.0,31.0,24.5,21.0,93,86,63,0.00,40.00,3,0,4,0.00
2013-10-30,46.0,32.2,27.0,33.0,27.7,26.0,93,85,53,0.00,40.00,4,0,11,0.00
2013-10-31,53.0,37.8,28.0,39.0,32.2,26.0,94,81,50,0.00,40.00,3,0,8,0.00
2013-11-1,54.0,34.6,27.0,39.0,30.1,26.0,94,85,48,0.00,40.00,3,1,7,0.00
2013-11-2,41.0,32.9,29.0,38.0,27.7,-99.9,94,89,81,0.00,40.00,3,1,11,0.00
2013-11-3,32.0,28.9,27.0,27.0,25.9,24.0,92,88,74,0.00,40.00,3,1,9,0.00
2013-11-4,34.0,29.7,23.0,29.0,26.4,21.0,93,87,72,0.00,40.00,3,1,10,0.00
2013-11-5,41.0,35.2,28.0,39.0,33.7,26.0,94,94,93,0.00,40.00,1,0,3,0.00
2013-11-6,50.0,41.5,37.0,46.0,39.5,36.0,94,93,87,0.00,40.00,3,0,5,0.00
2013-11-7,46.0,41.4,36.0,40.0,37.8,34.0,92,87,68,0.00,40.00,5,2,11,0.00
2013-11-8,43.0,33.6,28.0,34.0,29.8,26.0,92,86,58,0.00,40.00,2,0,6,0.00
2013-11-9,53.0,33.8,26.0,38.0,25.3,-99.9,92,80,44,0.00,40.00,3,0,7,0.00
2013-11-10,54.0,37.1,29.0,38.0,30.9,27.0,93,81,38,0.00,40.00,4,1,8,0.00
2013-11-11,49.0,35.7,29.0,35.0,29.3,23.0,92,80,36,0.00,40.00,3,1,6,0.00
2013-11-12,47.0,42.8,39.0,44.0,36.6,27.0,92,79,54,0.00,40.00,2,0,4,0.00
2013-11-13,50.0,39.3,27.0,41.0,35.5,24.0,93,88,37,0.00,40.00,1,0,4,0.00
2013-11-14,39.0,32.6,27.0,33.0,27.5,24.0,92,82,66,0.00,40.00,6,1,14,0.00
2013-11-15,35.0,30.3,26.0,27.0,24.8,22.0,92,80,61,0.00,40.00,6,2,14,0.00
2013-11-16,33.0,30.6,29.0,32.0,26.0,-99.9,94,90,85,0.00,40.00,5,2,12,0.00
2013-11-17,41.0,30.8,26.0,35.0,28.2,24.0,92,90,76,0.00,40.00,2,0,3,0.00
2013-11-18,40.0,33.9,28.0,34.0,29.5,26.0,93,84,62,0.00,40.00,2,1,6,0.00
2013-11-19,41.0,37.7,36.0,38.0,35.5,34.0,92,91,89,0.00,40.00,3,1,5,0.00
2013-11-20,37.0,32.1,23.0,35.0,28.9,14.0,92,88,66,0.00,40.00,3,1,7,0.00
2013-11-21,34.0,25.7,18.0,11.0,4.5,-4.0,60,41,24,0.00,40.00,3,2,9,0.00
2013-11-24,46.0,31.8,23.0,21.0,16.6,10.0,83,58,25,0.00,40.00,3,1,7,0.00
2013-11-25,47.0,28.6,21.0,21.0,18.9,14.0,89,71,26,0.00,40.00,2,1,8,0.00
2013-11-26,44.0,32.0,23.0,27.0,22.6,19.0,86,71,41,0.00,40.00,4,1,6,0.00
2013-11-27,43.0,33.8,28.0,28.0,24.8,23.0,88,71,45,0.00,40.00,3,1,4,0.00
2013-11-28,50.0,33.4,23.0,31.0,24.6,22.0,94,74,34,0.00,40.00,2,0,4,0.00
2013-11-29,47.0,30.5,23.0,32.0,24.8,21.0,94,81,45,0.00,40.00,1,0,6,0.00
2013-11-30,44.0,31.2,28.0,34.0,23.9,-99.9,93,82,62,0.00,40.00,2,0,6,0.00
2013-12-1,42.0,36.7,31.0,40.0,34.4,29.0,93,91,85,0.00,40.00,3,1,6,0.00
2013-12-2,39.0,34.6,23.0,37.0,32.2,20.0,94,90,80,0.00,40.00,3,2,18,0.00
2013-12-3,24.0,20.4,10.0,19.0,15.6,4.0,85,81,75,0.00,40.00,3,1,8,0.00
2013-12-4,18.0,11.3,7.0,7.0,3.8,2.0,82,72,51,0.00,40.00,2,1,8,0.00
2013-12-5,25.0,14.0,3.0,9.0,3.8,-1.0,83,66,34,0.00,40.00,3,0,9,0.00
2013-12-6,22.0,18.8,11.0,19.0,15.4,7.0,90,86,78,0.00,40.00,3,1,11,0.00
2013-12-7,21.0,8.5,-2.0,18.0,1.1,-99.9,89,80,77,0.00,40.00,1,0,11,0.00
2013-12-8,14.0,2.8,-10.0,9.0,-1.9,-14.0,83,81,76,0.00,40.00,3,1,6,0.00
2013-12-9,18.0,7.1,-1.0,13.0,3.2,-6.0,85,83,79,0.00,40.00,1,0,6,0.00
2013-12-10,33.0,17.2,6.0,30.0,14.1,3.0,91,87,84,0.00,40.00,3,0,4,0.00
2013-12-11,29.0,20.2,11.0,24.0,16.6,8.0,90,86,78,0.00,40.00,3,1,6,0.00
2013-12-12,35.0,27.1,11.0,31.0,24.7,8.0,94,91,86,0.00,40.00,2,0,3,0.00
2013-12-13,36.0,30.7,25.0,33.0,28.7,23.0,94,92,86,0.00,40.00,3,1,5,0.00
2013-12-14,36.0,26.1,19.0,33.0,18.3,-99.9,93,91,89,0.00,40.00,2,1,4,0.00
2013-12-15,40.0,26.9,18.0,31.0,24.0,16.0,92,89,63,0.00,40.00,1,0,2,0.00
2013-12-16,39.0,28.0,20.0,26.0,22.5,17.0,92,81,57,0.00,40.00,2,0,6,0.00
2013-12-17,46.0,27.3,19.0,26.0,22.1,17.0,91,83,40,0.00,40.00,1,0,3,0.00
2013-12-18,41.0,29.9,20.0,29.0,23.9,18.0,92,80,51,0.00,40.00,3,1,9,0.00
2013-12-19,29.0,22.3,12.0,26.0,13.6,7.0,90,71,46,0.00,40.00,3,1,9,0.00
2013-12-20,36.0,28.2,10.0,34.0,24.8,6.0,94,86,60,0.00,40.00,4,2,15,0.00
2013-12-21,36.0,32.9,30.0,34.0,29.0,-99.9,94,90,81,0.00,40.00,6,1,14,0.00
2013-12-22,41.0,33.1,27.0,37.0,30.4,25.0,93,90,70,0.00,40.00,2,0,8,0.00
2013-12-23,38.0,30.5,25.0,36.0,28.3,22.0,92,91,88,0.00,40.00,1,0,5,0.00
2013-12-24,36.0,29.3,26.0,29.0,25.9,23.0,92,88,73,0.00,40.00,2,1,6,0.00
2013-12-25,40.0,27.4,20.0,27.0,22.2,18.0,91,82,47,0.00,40.00,3,1,7,0.00
2013-12-26,43.0,28.5,20.0,26.0,22.0,18.0,90,79,45,0.00,40.00,2,0,4,0.00
2013-12-27,36.0,26.5,21.0,29.0,21.6,18.0,90,82,64,0.00,40.00,3,0,6,0.00
2013-12-28,40.0,27.8,23.0,23.0,5.4,-99.9,85,54,29,0.00,40.00,1,0,6,0.00
2013-12-29,41.0,28.5,21.0,18.0,15.3,9.0,80,61,28,0.00,40.00,3,1,9,0.00
2013-12-30,35.0,26.3,22.0,25.0,20.6,17.0,87,80,65,0.00,40.00,1,0,3,0.00
2013-12-31,46.0,29.8,26.0,24.0,22.0,13.0,87,75,26,0.00,40.00,1,0,7,0.00
2014-1-1,43.0,29.0,21.0,27.0,22.2,19.0,93,78,42,0.00,40.00,2,0,8,0.00
2014-1-2,46.0,30.0,22.0,28.0,24.1,20.0,92,81,49,0.00,40.00,1,0,4,0.00